Tracking 19638 objects as of 19-Apr-2019
HD Live streaming from Space Station
objects crossing your sky now

SCOUT G-1 DEB

Track SCOUT G-1 DEB now!
10-day predictions


NORAD ID: 43330
Int'l Code: 1988-033L
Perigee: 1,009.9 km
Apogee: 1,301.5 km
Inclination: 90.4 °
Period: 108.3 minutes
Semi major axis: 7526 km
RCS: Unknown
Launch date: April 26, 1988
Source: United States (US)
Launch site: AIR FORCE WESTERN TEST RANGE (AFWTR)

Note: This is SATELLITE DEBRIS
aabbcc
Your satellite tracking list
Your tracking list is empty




NASA's NSSDC Master Catalog

Two Line Element Set (TLE):
1 43330U 88033L   19102.48263954 +.00000231 +00000-0 +43071-3 0  9993
2 43330 090.3542 294.0979 0193690 104.8746 257.3932 13.29515335310750
Source of the keplerian elements: AFSPC